Earlysville, VA

2:01 AM EST on February 14, 2016 (GMT -0500)
Charlottesville-Albemarle

Weather History for KCHO - December, 2011

Change the Weather History Date:

Saturday, December 10, 2011

  Actual Average Record
Temperature  
Mean Temperature 39 °F 39 °F  
Max Temperature 49 °F 48 °F 75 °F (1946)
Min Temperature 29 °F 30 °F 5 °F (1917)
Degree Days  
Heating Degree Days 26 26  
Month to date heating degree days 211 248  
Since 1 July heating degree days 927 1139  
Cooling Degree Days 0 0  
Month to date cooling degree days 0 0  
Year to date cooling degree days 1603 1035  
Moisture  
Dew Point 22 °F    
Average Humidity 59    
Maximum Humidity 89    
Minimum Humidity 28    
Precipitation  
Precipitation 0.00 in 0.11 in 1.61 in (2003)
Month to date precipitation 2.42 1.20  
Year to date precipitation 46.37 40.76  
Sea Level Pressure  
Sea Level Pressure 30.36 in    
Wind  
Wind Speed 2 mph (NNW)    
Max Wind Speed 9 mph    
Max Gust Speed 14 mph    
Visibility 10 miles    
Events      
T = Trace of Precipitation, MM = Missing Value Source: NWS Daily Summary

Daily Weather History Graph

Daily Weather History Graph

Search for Another Location

Airport or City:

Trip Planner

Search our weather history database for the weather conditions in past years. The results will help you decide how hot, cold, wet, or windy it might be!

Date:

Astronomy

Dec. 10, 2011 Rise Set
Actual Time 7:19 AM EST 4:53 PM EST
Civil Twilight 6:49 AM EST 5:23 PM EST
Nautical Twilight 6:16 AM EST 5:56 PM EST
Astronomical Twilight 5:44 AM EST 6:28 PM EST
Moon 5:06 PM EST (12/10) 7:17 AM EST (12/10)
Length of Visible Light 10h 33m
Length of Day
9h 34m
Full, 100% of the Moon is Illuminated
Dec 10
Full
Dec 17
Last Quarter
Dec 24
New
Jan 1
First Quarter
Jan 9
Full

Hourly Weather History & Observations

Time (EST) Temp. Windchill Dew Point Humidity Pressure Visibility Wind Dir Wind Speed Gust Speed Precip Events Conditions
12:53 AM 33.1 °F - 30.0 °F 89% 30.25 in 10.0 mi Calm Calm - N/A   Clear
1:53 AM 34.0 °F - 30.0 °F 85% 30.24 in 10.0 mi Calm Calm - N/A   Clear
2:53 AM 33.8 °F - 30.2 °F 87% 30.25 in 10.0 mi Calm Calm - N/A   Clear
3:53 AM 32.0 °F - 28.9 °F 88% 30.25 in 10.0 mi Calm Calm - N/A   Clear
4:53 AM 36.0 °F - 25.0 °F 64% 30.26 in 10.0 mi Calm Calm - N/A   Clear
5:53 AM 32.0 °F - 26.1 °F 79% 30.29 in 10.0 mi Calm Calm - N/A   Clear
6:53 AM 32.0 °F - 26.1 °F 79% 30.32 in 10.0 mi Calm Calm - N/A   Clear
7:53 AM 34.0 °F - 25.0 °F 70% 30.33 in 10.0 mi Calm Calm - N/A   Clear
8:53 AM 37.9 °F - 28.9 °F 70% 30.35 in 10.0 mi Calm Calm - N/A   Clear
9:53 AM 46.0 °F - 28.0 °F 50% 30.37 in 10.0 mi Calm Calm - N/A   Scattered Clouds
10:53 AM 46.0 °F 41.4 °F 26.1 °F 46% 30.38 in 10.0 mi North 9.2 mph - N/A   Partly Cloudy
11:53 AM 46.9 °F - 25.0 °F 42% 30.37 in 10.0 mi Variable 5.8 mph - N/A   Clear
12:53 PM 48.9 °F - 25.0 °F 39% 30.35 in 10.0 mi North 6.9 mph - N/A   Overcast
1:53 PM 48.0 °F - 24.1 °F 39% 30.34 in 10.0 mi WNW 5.8 mph - N/A   Clear
2:53 PM 48.0 °F - 18.0 °F 30% 30.34 in 10.0 mi WNW 5.8 mph - N/A   Clear
3:53 PM 46.9 °F - 16.0 °F 29% 30.35 in 10.0 mi NNW 4.6 mph - N/A   Clear
4:53 PM 43.0 °F - 16.0 °F 34% 30.38 in 10.0 mi Calm Calm - N/A   Clear
5:53 PM 39.9 °F 37.8 °F 15.1 °F 36% 30.40 in 10.0 mi North 3.5 mph - N/A   Clear
6:53 PM 37.9 °F 35.5 °F 14.0 °F 38% 30.43 in 10.0 mi NNW 3.5 mph - N/A   Clear
7:53 PM 37.9 °F - 12.9 °F 36% 30.46 in 10.0 mi Calm Calm - N/A   Clear
8:53 PM 34.0 °F - 12.9 °F 42% 30.48 in 10.0 mi Calm Calm - N/A   Clear
9:53 PM 35.1 °F - 12.9 °F 40% 30.49 in 10.0 mi Calm Calm - N/A   Clear
10:53 PM 30.9 °F - 15.1 °F 52% 30.51 in 10.0 mi Calm Calm - N/A   Clear
11:53 PM 28.9 °F 23.9 °F 16.0 °F 58% 30.52 in 10.0 mi East 4.6 mph - N/A   Clear